PY1AU-13 Weather Reports


Display with metric or nautical units.
time (UTC)temp
F
wind
direction
speed
MPH
gust
MPH
rain 1hr
in
rain 24hr
in
rain mn
in
humidity
%
barometer
mb
20260504191844 82 0.0 0.0 0.00 0.00 0.00 70 1019.6
20260504191344 82 0.0 0.0 0.00 0.00 0.00 70 1019.5
20260504190844 82 0.0 0.0 0.00 0.00 0.00 71 1019.5
20260504190344 82 0.0 0.0 0.00 0.00 0.00 70 1019.4
20260504185844 82 0.0 0.0 0.00 0.00 0.00 70 1019.4
20260504185344 82 0.0 0.0 0.00 0.00 0.00 70 1019.3
20260504184844 82 0.0 0.0 0.00 0.00 0.00 70 1019.3
20260504184344 82 0.0 0.0 0.00 0.00 0.00 70 1019.2
20260504183844 82 0.0 0.0 0.00 0.00 0.00 70 1019.2
20260504183344 82 0.0 0.0 0.00 0.00 0.00 71 1019.2
20260504182844 81 0.0 0.0 0.00 0.00 0.00 72 1019.3
20260504182344 81 0.0 0.0 0.00 0.00 0.00 75 1019.3
20260504181844 81 0.0 0.0 0.00 0.00 0.00 75 1019.4
20260504181344 81 0.0 0.0 0.00 0.00 0.00 74 1019.5
20260504180844 81 0.0 0.0 0.00 0.00 0.00 73 1019.5
20260504180344 81 0.0 0.0 0.00 0.00 0.00 72 1019.6
20260504175844 81 0.0 0.0 0.00 0.00 0.00 72 1019.5
20260504175344 81 0.0 0.0 0.00 0.00 0.00 73 1019.6
20260504174844 81 0.0 0.0 0.00 0.00 0.00 73 1019.6
20260504174344 81 0.0 0.0 0.00 0.00 0.00 73 1019.7
20260504173844 80 0.0 0.0 0.00 0.00 0.00 73 1019.8
20260504173344 80 0.0 0.0 0.00 0.00 0.00 73 1019.8
20260504172844 80 0.0 0.0 0.00 0.00 0.00 72 1019.9
20260504172344 80 0.0 0.0 0.00 0.00 0.00 72 1019.9
20260504171844 80 0.0 0.0 0.00 0.00 0.00 71 1019.9
20260504171344 81 0.0 0.0 0.00 0.00 0.00 70 1020.0
20260504170844 81 0.0 0.0 0.00 0.00 0.00 71 1020.0
20260504170344 81 0.0 0.0 0.00 0.00 0.00 70 1020.1
20260504160344 81 0.0 0.0 0.00 0.00 0.00 69 1020.6
20260504150844 80 0.0 0.0 0.00 0.00 0.00 71 1021.4
20260504150344 80 0.0 0.0 0.00 0.00 0.00 72 1021.5
20260504140844 79 0.0 0.0 0.00 0.00 0.00 76 1022.5
20260504140344 79 0.0 0.0 0.00 0.00 0.00 77 1022.5
20260504130344 79 0.0 0.0 0.00 0.00 0.00 83 1023.2
20260504110344 79 0.0 0.0 0.00 0.00 0.00 81 1022.3
20260504100344 79 0.0 0.0 0.00 0.00 0.00 83 1022.0
20260504081843 79 0.0 0.0 0.00 0.00 0.00 83 1021.5
20260504081344 79 0.0 0.0 0.00 0.00 0.00 83 1021.5
20260504080844 79 0.0 0.0 0.00 0.00 0.00 83 1021.4
20260504080343 79 0.0 0.0 0.00 0.00 0.00 83 1021.4
20260504070344 79 0.0 0.0 0.00 0.00 0.00 82 1021.1
20260504050343 79 0.0 0.0 0.00 0.00 0.00 84 1021.5
20260504045843 79 0.0 0.0 0.00 0.00 0.00 84 1021.6
20260504045343 79 0.0 0.0 0.00 0.00 0.00 84 1021.6
20260504044843 79 0.0 0.0 0.00 0.00 0.00 84 1021.7
20260504044343 80 0.0 0.0 0.00 0.00 0.00 84 1021.6
20260504043843 80 0.0 0.0 0.00 0.00 0.00 84 1021.7
20260504043343 80 0.0 0.0 0.00 0.00 0.00 84 1021.8
20260504042843 80 0.0 0.0 0.00 0.00 0.00 84 1022.0
20260504042343 80 0.0 0.0 0.00 0.00 0.00 84 1022.0
20260504041843 80 0.0 0.0 0.00 0.00 0.00 84 1022.0
20260504041343 80 0.0 0.0 0.00 0.00 0.00 84 1022.0
20260504040843 80 0.0 0.0 0.00 0.00 0.00 84 1022.1
20260504040343 80 0.0 0.0 0.00 0.00 0.00 83 1022.2
20260504035843 80 0.0 0.0 0.00 0.00 0.00 83 1022.2
20260504035343 80 0.0 0.0 0.00 0.00 0.00 83 1022.3
20260504034843 80 0.0 0.0 0.00 0.00 0.00 83 1022.2
20260504034343 80 0.0 0.0 0.00 0.00 0.00 83 1022.3
20260504033843 80 0.0 0.0 0.00 0.00 0.00 83 1022.3
20260504033343 80 0.0 0.0 0.00 0.00 0.00 83 1022.3
20260504032843 80 0.0 0.0 0.00 0.00 0.00 83 1022.4
20260504032343 80 0.0 0.0 0.00 0.00 0.00 83 1022.4
20260504031843 80 0.0 0.0 0.00 0.00 0.00 83 1022.4
20260504031343 80 0.0 0.0 0.00 0.00 0.00 83 1022.4
20260504030843 80 0.0 0.0 0.00 0.00 0.00 83 1022.4
20260504030343 80 0.0 0.0 0.00 0.00 0.00 83 1022.5
20260504025843 80 0.0 0.0 0.00 0.00 0.00 83 1022.4
20260504025343 80 0.0 0.0 0.00 0.00 0.00 83 1022.5
20260504024843 80 0.0 0.0 0.00 0.00 0.00 83 1022.6
20260504024343 80 0.0 0.0 0.00 0.00 0.00 83 1022.6
20260504023843 80 0.0 0.0 0.00 0.00 0.00 83 1022.6
20260504023343 80 0.0 0.0 0.00 0.00 0.00 82 1022.6
20260504022843 80 0.0 0.0 0.00 0.00 0.00 82 1022.6
20260504022343 80 0.0 0.0 0.00 0.00 0.00 82 1022.6
20260504021843 80 0.0 0.0 0.00 0.00 0.00 82 1022.6
20260504021343 80 0.0 0.0 0.00 0.00 0.00 82 1022.7
20260504020843 80 0.0 0.0 0.00 0.00 0.00 82 1022.8
20260504020343 80 0.0 0.0 0.00 0.00 0.00 82 1022.8
20260504015843 80 0.0 0.0 0.00 0.00 0.00 82 1022.8
20260504015343 80 0.0 0.0 0.00 0.00 0.00 81 1022.8
20260504014843 80 0.0 0.0 0.00 0.00 0.00 81 1022.8
20260504014343 80 0.0 0.0 0.00 0.00 0.00 81 1022.8
20260504013843 80 0.0 0.0 0.00 0.00 0.00 81 1022.8
20260504013343 80 0.0 0.0 0.00 0.00 0.00 81 1022.8
20260504012843 80 0.0 0.0 0.00 0.00 0.00 81 1022.8
20260504012343 80 0.0 0.0 0.00 0.00 0.00 81 1022.8
20260504011843 80 0.0 0.0 0.00 0.00 0.00 81 1022.8
20260504011343 80 0.0 0.0 0.00 0.00 0.00 81 1022.8
20260504010843 80 0.0 0.0 0.00 0.00 0.00 81 1022.8
20260504010343 80 0.0 0.0 0.00 0.00 0.00 81 1022.8
20260504005843 80 0.0 0.0 0.00 0.00 0.00 80 1022.9
20260504005343 80 0.0 0.0 0.00 0.00 0.00 80 1022.9
20260504004843 80 0.0 0.0 0.00 0.00 0.00 80 1022.9
20260504004343 80 0.0 0.0 0.00 0.00 0.00 80 1022.9
20260504003843 80 0.0 0.0 0.00 0.00 0.00 80 1022.8
20260504003343 80 0.0 0.0 0.00 0.00 0.00 80 1022.9
20260504002843 80 0.0 0.0 0.00 0.00 0.00 80 1022.7
20260504002343 80 0.0 0.0 0.00 0.00 0.00 81 1022.7
20260504001843 80 0.0 0.0 0.00 0.00 0.00 82 1022.7
20260504001343 80 0.0 0.0 0.00 0.00 0.00 82 1022.6
20260504000843 80 0.0 0.0 0.00 0.00 0.00 82 1022.7
20260504000343 80 0.0 0.0 0.00 0.00 0.00 82 1022.7
20260503235843 80 0.0 0.0 0.00 0.00 0.00 81 1022.7
20260503235343 80 0.0 0.0 0.00 0.00 0.00 82 1022.7
20260503234843 80 0.0 0.0 0.00 0.00 0.00 82 1022.6
20260503234343 80 0.0 0.0 0.00 0.00 0.00 82 1022.6
20260503233843 80 0.0 0.0 0.00 0.00 0.00 82 1022.7
20260503233343 80 0.0 0.0 0.00 0.00 0.00 82 1022.6
20260503232843 80 0.0 0.0 0.00 0.00 0.00 82 1022.6
20260503232343 80 0.0 0.0 0.00 0.00 0.00 82 1022.8
20260503231843 80 0.0 0.0 0.00 0.00 0.00 82 1022.8
20260503231343 80 0.0 0.0 0.00 0.00 0.00 81 1022.7
20260503230843 80 0.0 0.0 0.00 0.00 0.00 81 1022.8
20260503230343 80 0.0 0.0 0.00 0.00 0.00 80 1022.6
20260503225843 80 0.0 0.0 0.00 0.00 0.00 80 1022.4
20260503225343 80 0.0 0.0 0.00 0.00 0.00 80 1022.4
20260503224843 80 0.0 0.0 0.00 0.00 0.00 80 1022.3
20260503224343 80 0.0 0.0 0.00 0.00 0.00 80 1022.3
20260503223843 80 0.0 0.0 0.00 0.00 0.00 81 1022.3
20260503223343 80 0.0 0.0 0.00 0.00 0.00 81 1022.2
20260503222843 80 0.0 0.0 0.00 0.00 0.00 81 1022.1
20260503222346 80 0.0 0.0 0.00 0.00 0.00 81 1022.2
20260503221842 80 0.0 0.0 0.00 0.00 0.00 81 1022.1
20260503221342 81 0.0 0.0 0.00 0.00 0.00 81 1022.1
20260503220842 81 0.0 0.0 0.00 0.00 0.00 81 1022.0
20260503220343 81 0.0 0.0 0.00 0.00 0.00 81 1022.0
20260503215843 81 0.0 0.0 0.00 0.00 0.00 81 1022.0
20260503215343 81 0.0 0.0 0.00 0.00 0.00 81 1021.9
20260503214843 81 0.0 0.0 0.00 0.00 0.00 81 1022.0
20260503214343 81 0.0 0.0 0.00 0.00 0.00 81 1021.9
20260503213843 81 0.0 0.0 0.00 0.00 0.00 81 1021.9
20260503213343 81 0.0 0.0 0.00 0.00 0.00 81 1021.8
20260503212842 81 0.0 0.0 0.00 0.00 0.00 81 1021.7
20260503212343 81 0.0 0.0 0.00 0.00 0.00 81 1021.8
20260503211843 81 0.0 0.0 0.00 0.00 0.00 80 1021.7
20260503211343 81 0.0 0.0 0.00 0.00 0.00 80 1021.7
20260503210843 81 0.0 0.0 0.00 0.00 0.00 80 1021.6
20260503210343 81 0.0 0.0 0.00 0.00 0.00 80 1021.7
20260503205842 81 0.0 0.0 0.00 0.00 0.00 80 1021.7
20260503205343 81 0.0 0.0 0.00 0.00 0.00 81 1021.7
20260503204842 81 0.0 0.0 0.00 0.00 0.00 80 1021.6
20260503204343 81 0.0 0.0 0.00 0.00 0.00 80 1021.5
20260503203843 81 0.0 0.0 0.00 0.00 0.00 80 1021.5
20260503203343 81 0.0 0.0 0.00 0.00 0.00 80 1021.4
20260503202843 81 0.0 0.0 0.00 0.00 0.00 80 1021.3
20260503202342 81 0.0 0.0 0.00 0.00 0.00 80 1021.3
20260503201842 81 0.0 0.0 0.00 0.00 0.00 79 1021.4
20260503201342 81 0.0 0.0 0.00 0.00 0.00 78 1021.3
20260503200843 81 0.0 0.0 0.00 0.00 0.00 78 1021.3
20260503200343 81 0.0 0.0 0.00 0.00 0.00 78 1021.2
20260503195843 81 0.0 0.0 0.00 0.00 0.00 78 1021.2
20260503195342 81 0.0 0.0 0.00 0.00 0.00 78 1021.1
20260503194843 81 0.0 0.0 0.00 0.00 0.00 78 1021.2
20260503194343 81 0.0 0.0 0.00 0.00 0.00 78 1021.1
20260503193842 81 0.0 0.0 0.00 0.00 0.00 78 1021.0
20260503193343 81 0.0 0.0 0.00 0.00 0.00 79 1021.0
20260503192838 81 0.0 0.0 0.00 0.00 0.00 79 1021.0
20260503192343 81 0.0 0.0 0.00 0.00 0.00 79 1021.1